Lapse_Rate
6.8 6.5 6.5 6.5 6.5 6.5 6.5 6.5 6.5 6.5 6.5 6.5 6.5 6.5 6.5 6.9 7.0 7.0 7.2 7.2 7.4 6.6 5.3 4.8 4.1 4.5 5.1 3.8 3.8 3.0 4.1 5.2 6.1 5.2 3.9 3.3 2.2 2.2 2.7 3.1 2.5 1.9 2.9 3.8
6.5 6.5 6.5 6.5 6.5 6.5 6.5 6.5 6.5 6.5 6.5 6.5 6.5 6.5 6.5 6.5 6.7 7.0 7.2 7.3 7.2 6.6 5.9 5.1 4.8 4.2 3.6 3.8 3.5 4.2 4.6 4.0 4.2 7.0 6.3 5.3 4.2 3.0 3.0 2.5 3.4 3.4 2.9 3.4
6.5 6.5 6.5 6.5 6.5 6.5 6.5 6.5 6.5 6.5 6.5 6.5 6.5 6.5 6.5 6.5 7.0 7.2 7.4 7.4 6.7 7.1 6.1 5.3 4.7 4.0 3.9 3.6 3.0 3.6 3.6 3.6 3.4 4.3 6.5 3.6 2.6 2.1 2.3 3.0 3.7 3.6 3.7 2.4
6.5 6.5 6.5 6.5 6.5 6.5 6.5 6.5 6.5 6.5 6.5 6.5 6.5 6.5 6.5 6.5 6.5 6.5 7.0 7.2 7.2 6.1 5.6 5.3 5.2 5.0 4.1 3.2 2.9 3.3 3.4 3.7 3.8 5.2 6.7 4.4 5.2 4.8 4.0 4.0 3.6 4.3 4.2 3.5
6.5 6.5 6.5 6.5 6.5 6.5 6.5 6.5 6.5 6.5 6.5 6.5 6.5 6.5 6.5 6.5 6.5 6.5 6.7 7.2 7.1 6.1 5.8 5.9 5.3 5.1 4.6 3.5 2.8 2.3 3.1 3.5 3.0 3.2 4.8 6.1 5.6 5.4 5.6 3.3 3.1 3.1 2.1 2.6
6.5 6.7 6.5 6.5 6.5 6.5 6.5 6.5 6.5 6.5 6.5 6.5 6.5 6.5 6.5 6.5 6.5 6.5 6.7 7.2 7.1 6.2 5.9 6.0 5.9 5.6 5.6 4.3 3.4 2.9 3.2 3.9 3.2 3.0 3.4 3.7 5.3 6.0 4.3 4.0 4.0 3.8 2.5 2.2
6.5 6.5 6.5 6.5 6.5 6.5 6.5 6.5 6.5 6.5 6.5 6.5 6.5 6.5 6.5 6.5 6.5 6.5 6.5 7.1 7.0 6.2 6.2 6.2 6.3 6.0 5.5 5.1 4.1 3.3 3.5 3.9 3.4 3.2 3.1 2.9 3.3 3.8 5.0 5.3 4.4 3.6 3.1 2.4
6.5 6.5 6.5 6.5 6.5 6.5 6.5 6.5 6.5 6.5 6.5 6.5 6.5 6.5 6.5 6.5 6.9 7.1 7.2 7.3 6.9 6.9 7.0 7.0 7.0 6.5 6.5 5.8 5.0 4.3 4.1 4.0 4.0 3.4 2.8 3.1 3.8 3.5 4.0 5.1 5.6 5.2 4.6 3.4
6.5 6.5 6.5 6.5 6.5 6.5 6.5 6.5 6.5 6.5 6.5 6.5 6.5 6.5 6.5 6.5 6.5 6.7 6.9 7.2 7.3 7.6 7.6 7.8 7.5 7.2 6.8 6.2 5.9 5.2 4.9 5.4 4.9 4.1 3.4 3.6 4.2 3.9 3.8 4.7 5.2 4.9 4.8 3.0
6.5 6.5 6.5 6.5 6.6 6.5 6.5 6.5 6.5 6.5 6.5 6.5 6.5 6.5 6.5 6.5 6.5 6.5 6.5 6.9 7.3 7.6 7.4 7.1 6.8 6.3 6.3 6.5 6.4 5.4 4.6 4.6 4.6 3.7 3.2 3.2 3.3 3.4 3.3 3.1 3.4 2.9 2.9 2.4
6.5 6.5 6.5 6.5 6.5 6.5 6.5 6.5 6.5 6.5 6.5 6.5 6.5 6.5 6.5 6.5 6.5 6.5 6.5 7.1 7.3 7.3 6.4 6.2 6.0 5.7 5.8 5.8 6.2 6.0 5.5 5.3 4.8 3.5 3.0 3.0 3.4 3.4 3.4 2.8 2.2 2.4 3.3 3.1
6.5 6.5 6.5 6.5 6.5 6.5 6.5 6.5 6.5 6.5 6.5 6.5 6.5 6.5 6.5 6.5 6.5 6.7 6.8 7.1 7.2 6.4 6.1 5.5 5.3 5.5 5.9 6.1 6.0 6.1 5.6 5.2 5.2 4.8 3.6 3.5 3.4 3.2 2.9 3.4 3.1 2.2 2.6 2.6
6.5 6.5 6.5 6.5 6.5 6.5 6.5 6.5 6.5 6.5 6.5 6.5 6.5 6.5 6.5 6.5 6.5 6.9 6.9 7.2 7.2 6.9 6.7 6.5 6.4 6.0 6.2 6.2 6.0 6.0 6.2 6.1 5.8 4.5 3.9 3.8 3.3 2.7 2.6 2.4 2.5 2.1 1.7 1.6
6.4 6.5 6.5 6.5 6.5 6.5 6.5 6.5 6.5 6.5 6.5 6.5 6.5 6.5 6.5 6.5 6.5 6.6 6.9 7.0 7.1 6.6 7.1 7.0 6.8 6.3 6.6 6.4 6.1 6.2 5.9 6.3 4.6 3.6 4.0 3.4 2.2 1.8 1.8 1.8 2.0 2.0 2.8 3.0
6.5 6.5 6.5 6.5 6.5 6.5 6.5 6.5 6.5 6.5 6.5 6.5 6.5 6.5 6.5 6.5 6.5 6.7 7.1 7.2 7.3 7.4 7.5 7.5 7.7 7.9 6.9 6.3 6.0 6.2 6.1 4.9 3.8 3.5 3.1 2.7 1.9 2.0 2.2 2.4 2.4 1.5 2.0 2.7
6.5 6.5 6.5 6.5 6.5 6.5 6.5 6.5 6.5 6.5 6.5 6.5 6.5 6.5 6.5 6.8 6.9 6.8 7.0 7.2 7.2 7.3 7.5 7.9 8.0 7.7 7.0 6.6 6.3 5.9 5.4 3.9 3.7 3.6 3.1 2.4 2.1 2.4 2.4 2.2 1.8 1.2 2.0 2.9
6.5 6.5 6.5 6.5 6.5 6.5 6.5 6.5 6.5 6.5 6.5 6.5 6.5 6.5 6.5 6.5 6.5 6.8 7.1 7.3 7.3 7.4 7.7 7.8 7.9 7.8 7.1 6.5 6.4 5.2 4.8 4.0 4.2 3.6 2.8 2.6 2.4 2.4 2.3 2.3 2.1 2.3 2.5 2.5
6.5 6.5 6.5 6.5 6.5 6.5 6.5 6.5 6.5 6.5 6.5 6.5 6.5 6.5 6.5 6.7 7.1 7.3 7.4 7.4 7.3 7.6 7.7 7.7 7.6 7.4 7.7 7.0 6.7 5.0 4.3 4.7 4.2 3.4 3.0 2.9 2.9 3.4 2.5 2.0 1.8 2.1 2.3 2.5
6.5 6.5 6.5 6.5 6.5 6.5 6.5 6.5 6.5 6.5 6.5 6.5 6.5 6.5 6.7 7.1 7.2 7.0 6.5 7.1 7.2 7.0 6.8 6.8 6.9 7.1 6.6 7.0 7.3 5.2 4.5 3.9 3.9 3.6 3.2 2.6 2.3 3.1 2.9 2.5 2.1 2.2 2.2 2.2
6.5 6.5 6.5 6.5 6.5 6.5 6.5 6.5 6.8 6.5 6.5 6.5 6.6 6.5 6.5 6.8 6.5 6.5 6.7 6.7 6.9 7.1 7.1 6.9 6.7 6.7 7.1 7.6 6.7 4.8 5.0 4.0 4.1 2.9 2.7 2.4 1.9 2.5 2.3 1.7 1.2 1.7 2.1 2.1
6.5 6.5 6.5 6.5 6.5 6.5 6.5 6.5 6.9 6.5 6.5 6.8 6.9 6.9 6.9 6.5 6.8 7.5 7.0 6.8 6.9 6.7 6.9 6.9 6.6 6.3 7.0 7.5 6.9 5.9 5.8 4.7 4.3 3.0 2.2 2.3 1.1 1.5 1.8 0.9 0.8 1.5 1.6 1.8
6.5 6.5 6.5 6.5 6.5 6.5 6.7 6.6 6.5 6.6 7.0 7.0 6.9 6.9 7.0 7.2 7.1 6.9 6.7 6.4 6.7 6.9 6.8 7.0 6.4 6.1 6.3 4.9 5.4 5.7 4.7 3.9 3.5 2.7 2.7 2.0 1.1 0.7 0.7 0.9 1.1 1.7 2.1 2.1
6.5 6.5 6.5 6.5 6.5 6.6 7.1 6.8 6.6 6.4 7.0 6.8 6.9 7.2 7.1 7.4 7.4 7.4 6.7 6.8 6.8 7.0 7.2 6.9 6.5 5.8 6.0 4.9 4.5 4.6 4.0 4.1 3.4 2.8 2.1 1.6 1.9 1.4 1.2 1.3 1.7 1.4 1.7 2.8
6.5 6.5 6.5 6.5 6.5 6.5 6.9 6.0 6.0 6.4 6.5 6.9 6.9 7.3 7.4 7.4 7.5 7.3 6.9 6.7 6.7 6.9 6.6 6.8 6.7 6.0 6.1 4.7 4.7 5.0 3.9 4.5 4.3 3.9 3.3 3.0 3.1 2.8 2.2 2.4 2.3 2.4 2.7 3.5
6.5 6.5 6.5 6.5 6.5 6.7 6.8 6.5 6.5 6.5 6.2 6.5 6.8 6.9 7.4 7.8 7.5 7.8 7.6 7.0 6.9 7.1 7.3 6.9 6.7 6.3 6.1 4.2 3.1 4.5 3.2 3.5 4.1 4.2 3.8 4.0 3.8 3.5 3.3 3.6 3.3 3.5 3.4 3.8
6.6 6.5 6.5 6.5 6.7 6.7 6.8 6.6 6.2 6.5 6.6 6.9 7.0 7.2 7.1 7.4 7.7 8.0 7.9 7.7 7.1 7.0 6.8 6.6 6.8 6.4 6.5 4.8 3.9 2.6 3.6 3.0 3.7 4.1 4.4 4.0 4.2 4.1 3.8 3.6 3.4 4.0 4.2 3.1
Wind_Speed
6 7 11 21 11 4 3 2 9 2 3 5 12 15 20 11 4 8 8 7 8 9 6 9 11 12 13 12 9 7 4 9 9 6 5 5 6 6 8 10 15 16 16 19
4 12 16 7 10 9 5 6 12 8 3 7 8 17 24 18 2 5 9 8 7 7 9 11 12 13 13 11 10 9 7 4 9 10 8 5 5 6 8 8 12 17 18 20
11 6 13 10 8 9 9 10 9 11 6 8 11 9 7 6 11 8 7 7 6 7 9 10 11 12 12 14 13 12 11 11 7 9 5 2 2 2 0 4 7 11 17 19
10 6 6 8 12 13 14 10 13 13 7 7 2 9 7 8 9 6 5 5 6 7 7 8 10 11 11 11 11 12 12 13 11 5 6 6 7 7 7 8 7 10 16 14
8 8 15 18 13 12 8 6 8 7 7 7 10 7 3 10 7 8 6 5 5 6 6 8 8 8 8 8 8 9 11 12 11 10 8 6 9 8 6 4 7 9 9 12
11 2 8 10 8 14 6 4 4 2 2 8 12 11 9 7 8 9 6 5 4 4 6 7 7 6 7 6 6 7 9 9 10 10 9 8 8 11 7 7 7 7 6 7
18 11 2 4 6 3 13 9 3 4 5 8 3 12 11 6 7 14 13 6 3 4 7 8 10 10 9 9 8 7 7 7 7 7 8 9 10 11 14 12 8 9 7 6
14 8 22 11 20 11 14 12 7 8 6 4 3 9 2 7 10 10 7 7 5 3 4 6 8 8 10 10 10 9 9 10 8 8 7 8 9 7 9 11 10 9 8 8
9 8 2 2 10 18 9 13 10 5 1 5 6 3 4 7 8 7 7 4 5 7 8 10 11 10 10 10 11 10 9 11 9 9 8 9 9 10 8 10 9 7 8 7
5 3 1 3 3 5 13 12 5 1 6 8 8 8 9 13 14 8 4 5 8 9 11 13 13 14 12 12 12 12 10 10 9 7 6 7 9 10 10 8 10 7 7 8
5 2 3 2 6 11 8 9 4 8 5 5 6 5 3 14 14 9 2 7 8 10 11 12 13 13 13 13 13 12 12 13 9 6 5 6 8 9 9 7 7 6 7 8
5 4 7 8 2 1 1 9 12 7 6 4 4 7 2 14 10 5 2 4 6 7 9 10 11 12 12 13 13 13 12 13 13 8 7 7 6 7 8 8 6 2 4 4
8 6 4 3 3 2 6 5 4 3 3 14 8 3 6 6 5 3 5 5 6 9 12 11 11 12 13 14 15 15 15 15 13 9 8 7 5 4 4 5 5 3 0 1
7 6 9 10 3 4 10 8 9 10 8 10 14 7 10 11 8 9 11 9 9 9 11 11 11 10 12 13 15 15 15 13 10 9 7 5 3 2 2 3 2 2 1 3
6 11 16 2 3 2 4 14 17 14 12 14 13 18 11 9 6 7 7 8 10 11 13 13 14 14 16 17 17 16 14 13 9 10 8 5 3 2 2 2 1 5 5 4
2 4 7 12 4 4 2 4 9 10 5 13 11 18 5 4 3 5 8 9 10 12 14 13 14 16 17 17 17 16 15 9 8 8 7 5 4 3 2 4 4 7 6 5
6 6 6 7 3 3 11 15 14 7 7 8 13 13 3 3 3 6 9 9 11 12 12 14 15 15 14 16 16 15 12 5 7 7 6 4 4 4 5 5 5 6 5 7
8 8 2 4 7 7 2 3 11 19 15 17 12 7 8 7 5 6 8 10 9 10 12 13 13 15 14 15 14 10 5 4 6 6 7 6 5 3 5 7 5 5 5 6
7 6 5 6 6 6 3 5 7 11 11 11 11 11 9 6 4 5 6 4 7 9 10 11 12 15 15 15 12 3 2 5 5 5 6 7 6 6 5 5 6 5 5 5
10 4 4 4 5 9 2 3 7 7 6 7 12 9 7 2 6 6 5 5 8 11 9 11 14 14 14 14 6 4 6 6 6 6 6 5 7 6 6 6 7 4 5 5
8 6 7 6 4 4 4 9 8 7 1 2 6 6 4 4 7 11 11 14 12 10 11 12 12 13 15 13 9 7 6 4 5 6 5 5 7 7 7 6 4 5 6 6
10 9 5 4 5 9 11 7 8 4 4 4 3 5 6 8 11 13 14 13 12 12 11 11 10 12 11 7 8 11 6 4 7 6 6 6 6 5 5 7 5 7 7 7
6 6 7 7 5 1 13 7 6 5 2 3 5 7 8 9 10 11 13 14 13 12 12 9 7 7 6 4 6 8 5 4 5 6 7 6 6 6 7 7 6 6 6 6
2 3 3 5 6 5 11 3 2 2 6 8 8 10 8 10 10 11 11 11 10 10 10 8 8 8 6 1 1 2 1 0 2 3 3 5 5 5 5 4 5 5 6 6
2 9 7 1 2 4 6 10 9 6 5 6 6 7 9 12 15 13 13 9 8 8 9 9 9 10 8 3 5 2 4 5 3 3 3 3 3 5 6 4 5 5 5 7
5 5 5 4 7 5 3 3 3 4 5 8 10 11 11 11 13 12 10 10 9 9 8 9 10 9 9 6 6 7 4 6 5 4 3 3 3 3 4 5 4 4 7 10
Wind_Direction
172 188 206 214 203 214 133 232 273 193 234 286 271 281 290 282 285 141 123 103 85 68 42 42 40 42 51 49 50 37 292 240 231 213 201 210 218 221 225 224 212 197 205 208
144 216 225 157 192 216 229 256 270 288 250 214 263 263 274 282 241 140 128 112 96 90 70 49 42 39 39 40 30 22 11 313 255 243 225 216 204 221 225 219 225 223 212 205
200 198 203 187 187 201 226 233 248 265 281 265 283 268 241 51 117 106 101 115 109 86 74 52 39 34 30 25 15 10 4 348 310 254 249 67 38 43 70 233 231 226 219 215
235 207 176 192 218 207 244 209 239 261 290 286 301 290 247 178 152 131 126 114 100 78 58 40 36 33 27 14 6 10 7 7 7 322 247 190 216 226 219 221 211 217 219 218
211 186 209 227 223 187 239 174 203 229 237 292 233 261 200 152 177 161 148 130 97 65 45 32 23 16 17 11 5 1 4 10 3 359 330 273 251 258 272 231 219 219 211 210
249 169 190 209 195 186 136 120 69 73 191 252 227 225 256 198 189 149 162 152 94 49 23 18 13 10 5 355 357 356 359 358 356 348 341 317 284 269 255 242 244 234 218 210
220 215 211 172 132 118 178 154 200 222 199 257 166 219 253 142 148 153 152 130 84 35 16 2 350 343 339 337 331 329 330 325 331 327 329 324 305 286 276 265 249 229 214 208
201 212 207 192 212 193 186 197 206 241 219 274 159 231 264 117 107 102 106 110 107 33 340 322 327 321 316 317 321 318 316 313 314 310 312 309 307 298 283 273 262 253 239 216
175 224 55 87 211 192 188 220 207 254 107 292 218 200 149 145 136 122 112 78 7 344 341 338 338 330 321 315 311 301 301 302 302 314 321 319 315 309 292 271 260 253 238 202
169 135 15 133 124 234 211 161 180 130 212 238 231 243 234 181 175 158 117 359 342 344 344 340 335 330 324 316 311 312 301 288 281 289 303 306 307 306 306 286 255 228 217 200
123 36 149 191 199 175 173 192 161 172 212 234 273 243 323 183 164 151 68 344 333 332 327 319 315 314 314 314 309 302 300 301 285 251 255 274 288 295 299 293 266 246 231 215
176 151 217 212 155 291 276 206 192 192 189 236 290 249 83 141 141 144 7 318 291 288 301 304 306 306 302 299 301 302 298 294 288 258 241 252 265 283 296 298 294 266 260 249
170 169 164 198 192 197 213 187 176 187 94 212 215 218 139 136 174 203 334 322 311 316 327 317 310 304 310 309 304 299 291 285 279 235 223 227 245 267 291 303 301 294 123 112
124 165 210 215 154 153 192 187 187 195 216 214 233 250 198 230 271 333 343 337 324 310 309 312 316 313 312 304 299 294 289 285 261 214 222 228 230 254 287 306 310 128 125 134
143 210 208 171 121 135 193 196 188 200 216 212 236 238 225 223 290 306 300 300 311 317 319 321 318 320 320 317 312 305 299 286 221 199 193 198 185 203 179 128 107 78 73 76
186 150 173 180 110 59 252 207 197 209 225 256 247 254 195 231 267 285 296 309 314 310 310 314 317 317 319 318 311 310 312 269 205 187 176 166 176 172 149 99 102 85 74 62
144 133 170 200 132 17 275 216 207 199 207 208 231 255 255 216 244 292 297 296 296 301 310 313 313 311 313 310 314 315 320 241 186 161 143 163 166 162 135 110 94 92 93 87
138 134 95 129 122 222 348 47 212 217 229 225 241 245 267 266 290 283 280 287 296 309 316 317 315 315 311 307 314 324 326 191 165 151 162 165 167 167 122 102 105 106 101 100
140 129 129 166 205 321 206 212 159 178 232 218 228 241 252 285 307 259 243 269 278 299 310 312 316 314 310 311 315 337 160 144 154 159 173 178 140 135 125 138 121 105 106 102
158 159 121 159 177 214 53 143 141 102 262 218 212 228 245 174 263 277 300 298 298 311 307 315 320 320 313 313 296 184 199 163 183 177 186 162 148 150 161 148 120 106 111 115
166 173 180 177 206 260 186 149 131 158 200 123 188 211 187 229 247 292 304 297 296 299 305 315 322 323 325 324 303 245 214 181 173 165 159 173 157 159 158 133 115 129 124 116
167 157 177 171 201 249 164 142 191 137 154 178 200 234 242 255 275 278 287 285 283 290 303 308 318 324 331 348 332 288 259 169 156 166 175 171 159 149 145 132 134 140 138 135
175 175 168 184 201 190 172 183 164 147 183 223 227 248 224 265 274 285 288 289 290 293 294 292 290 307 323 357 358 302 303 182 173 165 168 159 154 152 144 140 147 143 145 152
121 128 122 151 179 186 198 186 204 239 244 254 261 271 279 274 287 292 286 288 291 299 299 295 276 266 272 111 290 294 118 11 164 164 153 148 140 135 141 139 151 150 162 169
138 152 152 120 205 164 201 211 217 221 237 257 262 252 268 280 281 285 282 283 288 296 302 304 290 276 274 190 178 164 132 135 159 144 166 167 146 151 147 155 170 174 180 172
180 152 166 191 199 203 195 162 213 271 253 260 280 289 281 271 275 283 284 290 287 296 306 301 301 290 276 208 206 157 187 156 160 172 173 171 159 149 152 151 135 150 161 156